Simultaneous Nadir Overpasses (SNOs) Predictions

Prediction of SNOs between GOES-16 and NOAA-20 Satellite Orbit:

Table of predicted SNOs for the next 14.0 days since TLE Epoch: 7/10/2021
Index Date Time (GOES-16) GOES-16 Lat,Lon NOAA-20 Lat,Lon Distance(km) Time Diff (sec)
1 07/10/2021 06:26:33 -0.07, -75.14 -0.08, -75.16 2.64 80
2 07/12/2021 18:27:05 0.07, -75.18 -0.09, -75.94 86.39 80
3 07/13/2021 18:11:01 0.07, -75.19 0.93, -71.41 431.50 80
4 07/15/2021 06:30:09 -0.08, -75.20 0.22, -76.69 168.32 80
5 07/16/2021 06:14:03 -0.07, -75.22 -0.74, -72.14 349.78 80
6 07/17/2021 18:33:21 0.09, -75.25 -0.39, -77.46 251.36 80
7 07/18/2021 18:17:16 0.08, -75.27 0.63, -72.93 267.02 80
8 07/20/2021 06:36:24 -0.10, -75.29 0.58, -78.20 332.05 80
9 07/21/2021 06:20:19 -0.10, -75.31 -0.44, -73.67 186.20 80
10 07/22/2021 18:39:36 0.11, -75.34 -0.68, -78.99 414.94 80
11 07/23/2021 18:23:31 0.11, -75.36 0.29, -74.45 103.87 80
